TimeCEST,TemperatureF,Dew PointF,Humidity,Sea Level PressureIn,VisibilityMPH,Wind Direction,Wind SpeedMPH,Gust SpeedMPH,PrecipitationIn,Events,Conditions,WindDirDegrees,DateUTC
12:20 AM,75.2,69.8,83,30.04,-9999.0,East,3.5,-,N/A,,Clear,90,2013-08-18 22:20:00
12:50 AM,75.2,68.0,78,30.04,-9999.0,Variable,2.3,-,N/A,,Clear,0,2013-08-18 22:50:00
1:20 AM,75.2,68.0,78,30.04,-9999.0,Calm,Calm,-,N/A,,Clear,0,2013-08-18 23:20:00
1:50 AM,75.2,68.0,78,30.04,-9999.0,Variable,2.3,-,N/A,,Clear,0,2013-08-18 23:50:00
2:20 AM,73.4,66.2,78,30.04,-9999.0,Variable,1.2,-,N/A,,Clear,0,2013-08-19 00:20:00
2:50 AM,73.4,68.0,83,30.04,-9999.0,Calm,Calm,-,N/A,,Clear,0,2013-08-19 00:50:00
3:20 AM,73.4,66.2,78,30.04,-9999.0,NE,3.5,-,N/A,,Clear,50,2013-08-19 01:20:00
3:50 AM,71.6,66.2,83,30.04,-9999.0,Variable,2.3,-,N/A,,Clear,0,2013-08-19 01:50:00
4:20 AM,71.6,64.4,78,30.04,-9999.0,Calm,Calm,-,N/A,,Clear,0,2013-08-19 02:20:00
4:50 AM,71.6,64.4,78,30.04,-9999.0,Variable,1.2,-,N/A,,Clear,0,2013-08-19 02:50:00
5:20 AM,71.6,62.6,73,30.04,-9999.0,NE,2.3,-,N/A,,Clear,50,2013-08-19 03:20:00
5:50 AM,71.6,60.8,69,30.04,-9999.0,NE,2.3,-,N/A,,Clear,40,2013-08-19 03:50:00
6:20 AM,71.6,60.8,69,30.04,-9999.0,NNE,3.5,-,N/A,,Clear,30,2013-08-19 04:20:00
6:50 AM,71.6,60.8,69,30.04,-9999.0,NE,4.6,-,N/A,,Clear,40,2013-08-19 04:50:00
7:20 AM,71.6,60.8,69,30.04,-9999.0,NE,2.3,-,N/A,,Clear,40,2013-08-19 05:20:00
7:50 AM,75.2,64.4,69,30.04,-9999.0,NE,3.5,-,N/A,,Clear,50,2013-08-19 05:50:00
8:20 AM,77.0,66.2,69,30.04,-9999.0,Variable,2.3,-,N/A,,Clear,0,2013-08-19 06:20:00
8:50 AM,80.6,69.8,70,30.04,-9999.0,Variable,2.3,-,N/A,,Clear,0,2013-08-19 06:50:00
9:20 AM,80.6,68.0,65,30.04,-9999.0,Variable,3.5,-,N/A,,Clear,0,2013-08-19 07:20:00
9:50 AM,82.4,68.0,62,30.04,-9999.0,Variable,2.3,-,N/A,,Clear,0,2013-08-19 07:50:00
10:20 AM,82.4,68.0,62,30.04,-9999.0,Variable,4.6,-,N/A,,Clear,0,2013-08-19 08:20:00
11:20 AM,87.8,71.6,58,30.04,-9999.0,SSE,5.8,-,N/A,,Clear,160,2013-08-19 09:20:00
11:50 AM,86.0,69.8,58,30.04,-9999.0,South,6.9,-,N/A,,Clear,190,2013-08-19 09:50:00
12:20 PM,86.0,71.6,62,30.04,-9999.0,South,8.1,-,N/A,,Clear,190,2013-08-19 10:20:00
12:50 PM,86.0,69.8,58,30.04,-9999.0,South,9.2,-,N/A,,Clear,180,2013-08-19 10:50:00
1:20 PM,87.8,69.8,55,30.04,-9999.0,South,8.1,-,N/A,,Clear,180,2013-08-19 11:20:00
1:50 PM,87.8,71.6,58,30.01,-9999.0,South,9.2,-,N/A,,Clear,190,2013-08-19 11:50:00
2:20 PM,87.8,69.8,55,30.01,-9999.0,South,9.2,-,N/A,,Clear,180,2013-08-19 12:20:00
2:50 PM,89.6,64.4,43,30.01,-9999.0,SSE,8.1,-,N/A,,Clear,160,2013-08-19 12:50:00
3:50 PM,89.6,59.0,36,29.98,-9999.0,West,6.9,-,N/A,,Clear,280,2013-08-19 13:50:00
4:20 PM,89.6,59.0,36,29.98,-9999.0,West,9.2,-,N/A,,Clear,280,2013-08-19 14:20:00
4:50 PM,89.6,59.0,36,29.98,-9999.0,West,9.2,-,N/A,,Clear,280,2013-08-19 14:50:00
5:20 PM,89.6,57.2,33,29.98,-9999.0,WNW,6.9,-,N/A,,Clear,300,2013-08-19 15:20:00
5:50 PM,87.8,62.6,43,29.98,-9999.0,WNW,9.2,-,N/A,,Clear,290,2013-08-19 15:50:00
6:20 PM,86.0,64.4,48,29.98,-9999.0,West,11.5,-,N/A,,Clear,270,2013-08-19 16:20:00
6:50 PM,84.2,68.0,58,29.98,-9999.0,WNW,10.4,-,N/A,,Clear,290,2013-08-19 16:50:00
7:20 PM,82.4,68.0,62,29.98,-9999.0,WNW,10.4,-,N/A,,Clear,290,2013-08-19 17:20:00
7:50 PM,80.6,69.8,70,29.98,-9999.0,WNW,9.2,-,N/A,,Clear,300,2013-08-19 17:50:00
8:20 PM,78.8,69.8,74,29.98,-9999.0,WNW,8.1,-,N/A,,Clear,290,2013-08-19 18:20:00
8:50 PM,78.8,69.8,74,29.98,-9999.0,WNW,8.1,-,N/A,,Clear,300,2013-08-19 18:50:00
9:20 PM,78.8,71.6,78,29.98,-9999.0,NW,6.9,-,N/A,,Clear,310,2013-08-19 19:20:00
9:50 PM,78.8,71.6,78,30.01,-9999.0,WNW,8.1,-,N/A,,Clear,290,2013-08-19 19:50:00
10:20 PM,77.0,71.6,83,29.98,-9999.0,West,5.8,-,N/A,,Clear,280,2013-08-19 20:20:00
10:50 PM,77.0,69.8,78,29.98,-9999.0,West,4.6,-,N/A,,Clear,270,2013-08-19 20:50:00
11:20 PM,77.0,71.6,83,29.98,-9999.0,WNW,4.6,-,N/A,,Clear,300,2013-08-19 21:20:00
11:50 PM,75.2,69.8,83,29.98,-9999.0,Calm,Calm,-,N/A,,Clear,0,2013-08-19 21:50:00